• Join FlightAware (Why Join?)
  • Login
  • US Flag GB Flag 
00:41 EDT


 

Airport Tracker/Info


-or-


 

Live Flight TrackerFlight Track Log ✈ DAL268 ✈ 17-Sep-2013 ✈ KSFO - KJFK

Flight Track Log - Related Links

Times and Time Zones

All times are in EDT time to prevent confusion due to time zone crossing. See the DAL268 flight status page for this flight to view local times or setup timezone preferences in your user account.

Time Position Orientation Groundspeed Altitude Reporting Facility
EDT Latitude Longitude Course Direction KTS MPH feet Rate Location/Type
14:33 37.6110 -122.3600 90° East  Level FlightAware
14:38 37.6160 -122.3690 299° West 145 167 180 Level FlightAware
14:39 37.6250 -122.3870 302° West 164 189 1,100 3,240 Climbing FlightAware
14:39 37.6300 -122.3910 328° Northwest 162 186 1,700 4,260 Climbing FlightAware
14:39 37.6344 -122.3920 350° North 172 198 2,100 4,200 Climbing FlightAware ADS-B
14:39 37.6382 -122.3920 360° North 175 201 2,400 3,000 Climbing FlightAware ADS-B
14:39 37.6407 -122.3910 18° North 184 212 2,500 2,520 Climbing FlightAware ADS-B
14:39 37.6447 -122.3890 22° Northeast 191 220 2,700 2,520 Climbing FlightAware ADS-B
14:39 37.6472 -122.3880 18° North 195 224 2,800 1,800 Climbing FlightAware ADS-B
14:39 37.6546 -122.3800 41° Northeast 215 247 3,100 2,100 Climbing FlightAware ADS-B
14:39 37.6610 -122.3700 51° Northeast 229 264 3,500 2,400 Climbing FlightAware ADS-B
14:40 37.6639 -122.3640 59° Northeast 239 275 3,700 1,980 Climbing FlightAware ADS-B
14:40 37.6728 -122.3440 61° Northeast 264 304 4,200 2,580 Climbing FlightAware ADS-B
14:41 37.7030 -122.2780 60° Northeast 287 330 6,500 3,000 Climbing FlightAware
14:41 37.7222 -122.2390 58° Northeast 296 341 7,900 3,300 Climbing FlightAware ADS-B
14:41 37.7384 -122.2060 58° Northeast 295 339 9,200 3,180 Climbing FlightAware ADS-B
14:42 37.7504 -122.1830 57° Northeast 299 344 10,000 2,640 Climbing FlightAware ADS-B
14:42 37.7595 -122.1630 60° Northeast 306 352 10,500 1,380 Climbing FlightAware ADS-B
14:43 37.7910 -122.0570 69° East 379 436 11,600 1,440 Climbing FlightAware
14:43 37.8041 -122.0110 70° East 393 452 12,400 2,100 Climbing FlightAware ADS-B
14:44 37.8238 -121.9390 71° East 408 470 13,500 2,100 Climbing FlightAware ADS-B
14:45 37.8560 -121.8190 71° East 429 494 15,400 2,160 Climbing FlightAware
14:45 37.8770 -121.7440 70° East 436 502 16,600 2,280 Climbing FlightAware
14:45 37.8869 -121.7070 71° East 440 506 17,200 2,160 Climbing FlightAware ADS-B
14:46 37.9070 -121.6280 72° East 447 514 18,300 1,920 Climbing FlightAware ADS-B
14:46 37.9246 -121.5520 74° East 459 528 19,200 1,620 Climbing FlightAware ADS-B
14:47 37.9410 -121.4710 76° East 473 544 20,000 1,560 Climbing FlightAware
14:48 37.9580 -121.3820 76° East 485 558 20,900 1,440 Climbing FlightAware
14:48 37.9760 -121.2850 77° East 496 571 21,700 1,440 Climbing FlightAware
14:49 37.9970 -121.1720 77° East 508 585 22,700 1,560 Climbing FlightAware
14:49 38.0150 -121.0780 76° East 518 596 23,500 1,500 Climbing FlightAware
14:50 38.0360 -120.9660 77° East 527 606 24,500 1,560 Climbing FlightAware
14:50 38.0540 -120.8730 76° East 533 613 25,300 1,560 Climbing FlightAware
14:51 38.0730 -120.7690 77° East 538 619 26,200 1,500 Climbing FlightAware
14:52 38.0950 -120.6520 77° East 545 627 27,100 1,260 Climbing FlightAware
14:52 38.1160 -120.5380 77° East 552 635 27,800 1,200 Climbing FlightAware
14:53 38.1370 -120.4240 77° East 558 642 28,600 1,500 Climbing FlightAware
14:53 38.1560 -120.3210 77° East 555 639 29,500 1,740 Climbing FlightAware
14:54 38.1750 -120.2180 77° East 550 633 30,500 1,740 Climbing FlightAware
14:54 38.1940 -120.1080 78° East 546 628 31,500 1,680 Climbing FlightAware
14:55 38.2140 -120.0000 77° East 543 625 32,500 1,380 Climbing FlightAware
14:56 38.2340 -119.8860 77° East 546 628 33,200 1,200 Climbing FlightAware
14:56 38.2550 -119.7690 77° East 545 627 34,000 1,320 Climbing FlightAware
14:57 38.2740 -119.6630 77° East 541 623 34,800 840 Climbing FlightAware
14:57 38.2940 -119.5510 77° East 534 615 35,000 120 Climbing FlightAware
14:58 38.3110 -119.4480 78° East 527 606 35,000  Level FlightAware
14:59 38.3280 -119.3520 77° East 527 606 35,000  Level FlightAware
14:59 38.3480 -119.2380 77° East 529 609 35,000  Level FlightAware
15:00 38.3670 -119.1270 78° East 531 611 35,000  Level FlightAware
15:00 38.3860 -119.0160 78° East 534 615 35,000  Level FlightAware
15:01 38.4030 -118.9180 77° East 534 615 35,000  Level FlightAware
15:02 38.4210 -118.8090 78° East 534 615 35,000  Level FlightAware
15:02 38.4400 -118.6960 78° East 537 618 35,000  Level FlightAware
15:03 38.4570 -118.5930 78° East 538 619 35,000  Level FlightAware
15:03 38.4750 -118.4880 78° East 543 625 35,000  Level FlightAware
15:04 38.4940 -118.3720 78° East 541 623 35,000  Level FlightAware
15:04 38.5120 -118.2620 78° East 544 626 35,000  Level FlightAware
15:05 38.5300 -118.1510 78° East 542 624 35,000  Level FlightAware
15:06 38.5460 -118.0500 79° East 540 621 35,000  Level FlightAware
15:06 38.5610 -117.9650 77° East 539 620 35,000  Level FlightAware
15:07 38.5760 -117.8700 79° East 539 620 35,000  Level FlightAware
15:07 38.5920 -117.7740 78° East 539 620 35,000  Level FlightAware
15:08 38.6080 -117.6790 78° East 539 620 35,000  Level FlightAware
15:09 38.6240 -117.5810 78° East 539 620 35,000  Level FlightAware
15:09 38.6410 -117.4820 78° East 539 620 35,000  Level FlightAware
15:10 38.6560 -117.3870 79° East 539 620 35,000  Level FlightAware
15:10 38.6720 -117.2910 78° East 539 620 35,000  Level FlightAware
15:11 38.6880 -117.1960 78° East 539 620 35,000  Level FlightAware
15:12 38.7040 -117.1000 78° East 539 620 35,000  Level FlightAware
15:12 38.7220 -116.9940 78° East 539 620 35,000  Level FlightAware
15:13 38.7370 -116.8980 79° East 539 620 35,000  Level FlightAware
15:13 38.7530 -116.8020 78° East 539 620 35,000  Level FlightAware
15:14 38.7690 -116.7070 78° East 539 620 35,000  Level FlightAware
15:15 38.7850 -116.6110 78° East 539 620 35,000  Level FlightAware
15:15 38.8000 -116.5180 78° East 539 620 35,000  Level FlightAware
15:17 38.8536 -116.0289 78° East 534 615 35,000  Level Salt Lake Center
15:18 38.8794 -115.8425 80° East 530 610 35,000  Level Salt Lake Center
15:19 38.9064 -115.6542 80° East 535 616 35,000  Level Salt Lake Center
15:20 38.9322 -115.4664 80° East 535 616 35,000  Level Salt Lake Center
15:21 38.9619 -115.2511 80° East 531 611 35,000  Level Salt Lake Center
15:22 38.9875 -115.0647 80° East 530 610 35,000  Level Salt Lake Center
15:23 39.0150 -114.8758 79° East 535 616 35,000  Level Salt Lake Center
15:24 39.0383 -114.6908 81° East 527 606 35,000  Level Salt Lake Center
15:29 39.1680 -113.6560 81° East 526 605 35,000  Level FlightAware
15:30 39.1870 -113.5030 81° East 528 608 35,000  Level FlightAware
15:31 39.1980 -113.4120 81° East 528 608 35,000  Level FlightAware
15:31 39.2110 -113.3060 81° East 528 608 35,000  Level FlightAware
15:32 39.2220 -113.2160 81° East 528 608 35,000  Level FlightAware
15:32 39.2330 -113.1210 81° East 528 608 35,000  Level FlightAware
15:33 39.2144 -112.9610 98° East 522 601 35,000  Level FlightAware ADS-B
15:34 39.2570 -112.9280 31° Northeast 528 608 35,000  Level FlightAware
15:34 39.2690 -112.8320 81° East 528 608 35,000  Level FlightAware
15:34 39.2125 -112.6880 117° Southeast 520 598 35,000  Level FlightAware ADS-B
15:35 39.2121 -112.5860 90° East 517 595 35,000  Level FlightAware ADS-B
15:36 39.3040 -112.5460 19° North 528 608 35,000  Level FlightAware
15:37 39.2106 -112.3070 117° Southeast 516 594 35,000  Level FlightAware ADS-B
15:37 39.2104 -112.2120 90° East 516 594 35,000  Level FlightAware ADS-B
15:38 39.2100 -112.1160 90° East 515 593 35,000  Level FlightAware ADS-B
15:38 39.2100 -111.9630 90° East 513 590 35,000  Level FlightAware
15:39 39.2104 -111.9160 89° East 512 589 35,000  Level FlightAware ADS-B
15:39 39.2115 -111.8130 89° East 512 589 35,000  Level FlightAware ADS-B
15:40 39.2126 -111.7150 89° East 513 590 35,000  Level FlightAware ADS-B
15:40 39.2140 -111.6710 88° East 512 589 35,000  Level FlightAware
15:41 39.2150 -111.5770 89° East 512 589 35,000  Level FlightAware
15:41 39.2157 -111.4960 89° East 511 588 35,000  Level FlightAware ADS-B
15:41 39.2175 -111.3970 89° East 511 588 35,000  Level FlightAware ADS-B
15:42 39.2190 -111.3210 89° East 511 588 35,000  Level FlightAware
15:43 39.2250 -111.2180 86° East 516 594 35,000  Level FlightAware
15:43 39.2459 -111.1180 75° East 526 605 35,000  Level FlightAware ADS-B
15:43 39.2643 -111.0650 66° East 527 606 35,000  Level FlightAware ADS-B
15:44 39.3260 -110.9090 63° Northeast 525 604 35,000  Level FlightAware
15:45 39.3620 -110.8190 63° Northeast 528 608 35,000  Level FlightAware
15:45 39.4060 -110.7090 63° Northeast 527 606 35,000  Level FlightAware
15:46 39.4380 -110.6300 62° Northeast 526 605 35,000  Level FlightAware
15:47 39.4850 -110.5100 63° Northeast 529 609 35,000  Level FlightAware
15:47 39.5190 -110.4250 63° Northeast 528 608 35,000  Level FlightAware
15:48 39.5560 -110.3300 63° Northeast 526 605 35,000  Level FlightAware
15:48 39.5910 -110.2420 63° Northeast 523 602 35,000  Level FlightAware
15:49 39.6350 -110.1300 63° Northeast 526 605 35,000  Level FlightAware
15:50 39.6720 -110.0340 63° Northeast 525 604 35,000  Level FlightAware
15:50 39.7160 -109.9200 63° Northeast 525 604 35,000  Level FlightAware
15:51 39.7530 -109.8250 63° Northeast 526 605 35,000  Level FlightAware
15:51 39.7980 -109.7050 64° Northeast 526 605 35,000  Level FlightAware
15:52 39.8280 -109.6250 64° Northeast 527 606 35,000  Level FlightAware
15:53 39.8700 -109.5120 64° Northeast 528 608 35,000  Level FlightAware
15:53 39.9100 -109.4040 64° Northeast 529 609 35,000 540 Level FlightAware
15:54 39.9450 -109.3110 64° Northeast 529 609 35,700 1,260 Climbing FlightAware
15:54 39.9800 -109.2150 65° Northeast 528 608 36,400 1,140 Climbing FlightAware
15:55 40.0190 -109.1110 64° Northeast 522 601 37,000 540 Climbing FlightAware
15:55 40.0550 -109.0120 65° Northeast 516 594 37,100 480 Climbing FlightAware
15:56 40.0880 -108.9220 64° Northeast 518 596 37,600 960 Climbing FlightAware
15:57 40.1290 -108.8100 64° Northeast 514 592 38,300 1,140 Climbing FlightAware
15:57 40.1610 -108.7180 66° East 511 588 38,900 600 Climbing FlightAware
15:58 40.1860 -108.6120 73° East 508 585 39,000 60 Climbing FlightAware
15:58 40.2070 -108.5090 75° East 505 581 39,000  Level FlightAware
15:59 40.2170 -108.4120 82° East 499 574 39,000  Level FlightAware
16:00 40.2220 -108.3090 86° East 497 572 39,000  Level FlightAware
16:00 40.2260 -108.1950 87° East 497 572 39,000  Level FlightAware
16:01 40.2200 -108.0980 95° East 494 568 39,000  Level FlightAware
16:01 40.2060 -107.9580 97° East 494 568 39,000  Level FlightAware
16:02 40.1960 -107.8610 98° East 494 568 39,000  Level FlightAware
16:03 40.1850 -107.7560 98° East 498 573 39,000  Level FlightAware
16:03 40.1800 -107.6600 94° East 501 577 39,000  Level FlightAware
16:04 40.1770 -107.5550 92° East 506 582 39,000  Level FlightAware
16:04 40.1790 -107.4520 89° East 507 583 39,000  Level FlightAware
16:05 40.1810 -107.3330 89° East 507 583 39,000  Level FlightAware
16:06 40.1830 -107.2180 89° East 506 582 39,000  Level FlightAware
16:06 40.1840 -107.1250 89° East 505 581 39,000  Level FlightAware
16:07 40.1860 -107.0210 89° East 505 581 39,000  Level FlightAware
16:07 40.1950 -106.9070 84° East 507 583 39,000  Level FlightAware
16:08 40.2170 -106.8070 74° East 510 587 39,000  Level FlightAware
16:08 40.2510 -106.7030 67° East 509 586 39,000  Level FlightAware
16:09 40.2820 -106.6050 67° East 510 587 39,000  Level FlightAware
16:10 40.3150 -106.5020 67° East 509 586 39,000  Level FlightAware
16:10 40.3450 -106.4100 67° East 508 585 39,000  Level FlightAware
16:11 40.3820 -106.2940 67° East 510 587 39,000  Level FlightAware
16:11 40.4160 -106.1880 67° East 510 587 39,000  Level FlightAware
16:12 40.4460 -106.0960 67° East 511 588 39,000  Level FlightAware
16:13 40.4840 -105.9770 67° East 511 588 39,000  Level FlightAware
16:13 40.5170 -105.8720 68° East 511 588 39,000  Level FlightAware
16:14 40.5460 -105.7810 67° East 509 586 39,000  Level FlightAware
16:14 40.5790 -105.6730 68° East 508 585 39,000  Level FlightAware
16:15 40.6020 -105.6000 67° East 507 583 39,000  Level FlightAware
16:16 40.6380 -105.4860 67° East 506 582 39,000  Level FlightAware
16:16 40.6720 -105.3760 68° East 506 582 39,000  Level FlightAware
16:17 40.7020 -105.2780 68° East 504 580 39,000  Level FlightAware
16:17 40.7320 -105.1800 68° East 504 580 39,000  Level FlightAware
16:18 40.7630 -105.0780 68° East 504 580 39,000  Level FlightAware
16:19 40.7930 -104.9770 69° East 504 580 39,000  Level FlightAware
16:19 40.8210 -104.8850 68° East 503 579 39,000  Level FlightAware
16:20 40.8550 -104.7720 68° East 503 579 39,000  Level FlightAware
16:20 40.8820 -104.6800 69° East 502 578 39,000  Level FlightAware
16:21 40.9080 -104.5960 68° East 503 579 39,000  Level FlightAware
16:21 40.9430 -104.4750 69° East 503 579 39,000  Level FlightAware
16:22 40.9730 -104.3740 68° East 503 579 39,000  Level FlightAware
16:23 41.0000 -104.2830 69° East 504 580 39,000  Level FlightAware
16:23 41.0300 -104.1800 69° East 504 580 39,000  Level FlightAware
16:24 41.0600 -104.0760 69° East 504 580 39,000  Level FlightAware
16:24 41.0890 -103.9800 68° East 505 581 39,000  Level FlightAware
16:25 41.1170 -103.8810 69° East 506 582 39,000  Level FlightAware
16:26 41.1470 -103.7760 69° East 506 582 39,000  Level FlightAware
16:26 41.1760 -103.6780 69° East 506 582 39,000  Level FlightAware
16:27 41.2050 -103.5760 69° East 506 582 39,000  Level FlightAware
16:27 41.2360 -103.4680 69° East 506 582 39,000  Level FlightAware
16:28 41.2650 -103.3650 69° East 507 583 39,000  Level FlightAware
16:28 41.2930 -103.2640 70° East 506 582 39,000  Level FlightAware
16:29 41.3220 -103.1610 69° East 505 581 39,000  Level FlightAware
16:30 41.3500 -103.0630 69° East 505 581 39,000  Level FlightAware
16:30 41.3780 -102.9630 70° East 505 581 39,000  Level FlightAware
16:31 41.4160 -102.8260 70° East 505 581 39,000  Level FlightAware
16:32 41.4420 -102.7370 69° East 505 581 39,000  Level FlightAware
16:32 41.4680 -102.6480 69° East 505 581 39,000  Level FlightAware
16:33 41.5020 -102.5120 72° East 502 578 39,000  Level FlightAware
16:34 41.5410 -102.3750 69° East 502 578 39,000  Level FlightAware
16:34 41.5700 -102.2630 71° East 501 577 39,000  Level FlightAware
16:35 41.5940 -102.1730 70° East 500 575 39,000  Level FlightAware
16:35 41.6190 -102.0840 69° East 500 575 39,000  Level FlightAware
16:36 41.6430 -101.9950 70° East 500 575 39,000  Level FlightAware
16:37 41.6680 -101.9030 70° East 500 575 39,000  Level FlightAware
16:37 41.6920 -101.8140 70° East 500 575 39,000  Level FlightAware
16:38 41.7160 -101.7250 70° East 500 575 39,000  Level FlightAware
16:38 41.7400 -101.6360 70° East 500 575 39,000  Level FlightAware
16:39 41.7650 -101.5470 69° East 500 575 39,000  Level FlightAware
16:40 41.7890 -101.4580 70° East 500 575 39,000  Level FlightAware
16:40 41.8130 -101.3690 70° East 500 575 39,000  Level FlightAware
16:41 41.8370 -101.2790 70° East 500 575 39,000  Level FlightAware
16:41 41.8610 -101.1900 70° East 500 575 39,000  Level FlightAware
16:42 41.8840 -101.1060 70° East 500 575 39,000  Level FlightAware
16:42 41.9090 -101.0140 70° East 500 575 39,000  Level FlightAware
16:43 41.9340 -100.9220 70° East 500 575 39,000  Level FlightAware
16:44 41.9580 -100.8320 70° East 500 575 39,000  Level FlightAware
16:44 41.9820 -100.7430 70° East 500 575 39,000  Level FlightAware
16:47 41.9594 -99.9922 92° East 487 560 39,000  Level FlightAware ADS-B
16:48 41.9731 -99.8942 79° East 488 562 39,000  Level FlightAware ADS-B
16:48 41.9873 -99.7917 79° East 488 562 39,000  Level FlightAware ADS-B
16:49 42.0120 -99.6120 79° East 490 564 39,000  Level FlightAware ADS-B
16:50 42.0311 -99.4722 80° East 490 564 39,000  Level FlightAware ADS-B
16:51 42.0665 -99.2074 80° East 489 563 39,000  Level FlightAware ADS-B
16:52 42.0784 -99.1174 80° East 490 564 39,000  Level FlightAware ADS-B
16:52 42.0909 -99.0224 80° East 489 563 39,000  Level FlightAware ADS-B
16:54 42.1162 -98.8278 80° East 488 562 39,000  Level FlightAware ADS-B
16:54 42.1290 -98.7283 80° East 488 562 39,000  Level FlightAware ADS-B
16:55 42.1409 -98.6358 80° East 488 562 39,000  Level FlightAware ADS-B
16:56 42.1685 -98.4181 80° East 487 560 39,000  Level FlightAware ADS-B
16:56 42.1827 -98.3054 80° East 487 560 39,000  Level FlightAware ADS-B
16:58 42.2151 -98.0451 80° East 485 558 39,000  Level FlightAware ADS-B
16:58 42.2274 -97.9448 81° East 484 557 39,000  Level FlightAware ADS-B
16:59 42.2383 -97.8544 81° East 484 557 39,000  Level FlightAware ADS-B
17:00 42.2628 -97.6495 81° East 483 556 39,000  Level FlightAware ADS-B
17:01 42.2742 -97.5528 81° East 483 556 39,000  Level FlightAware ADS-B
17:01 42.2850 -97.4618 81° East 482 555 39,000  Level FlightAware ADS-B
17:02 42.3078 -97.2656 81° East 482 555 39,000  Level FlightAware ADS-B
17:03 42.3182 -97.1755 81° East 482 555 39,000  Level FlightAware ADS-B
17:03 42.3285 -97.0863 81° East 482 555 39,000  Level FlightAware ADS-B
17:04 42.3440 -96.9490 81° East 481 554 39,000  Level FlightAware
17:04 42.3516 -96.8814 81° East 481 554 39,000  Level FlightAware ADS-B
17:05 42.3620 -96.7880 81° East 481 554 39,000  Level FlightAware ADS-B
17:05 42.3720 -96.6981 81° East 481 554 39,000  Level FlightAware ADS-B
17:06 42.3900 -96.5300 82° East 480 552 39,000  Level FlightAware
17:07 42.3945 -96.4927 81° East 480 552 39,000  Level FlightAware ADS-B
17:07 42.4054 -96.3917 82° East 480 552 39,000  Level FlightAware ADS-B
17:08 42.4290 -96.1740 82° East 478 550 39,000  Level FlightAware
17:09 42.4354 -96.1098 82° East 478 550 39,000  Level FlightAware ADS-B
17:09 42.4452 -96.0162 82° East 478 550 39,000  Level FlightAware ADS-B
17:10 42.4545 -95.9256 82° East 478 550 39,000  Level FlightAware ADS-B
17:10 42.4670 -95.8070 82° East 477 549 39,000  Level FlightAware
17:11 42.4750 -95.7264 82° East 477 549 39,000  Level FlightAware ADS-B
17:11 42.4845 -95.6328 82° East 477 549 39,000  Level FlightAware ADS-B
17:12 42.4939 -95.5395 82° East 477 549 39,000  Level FlightAware ADS-B
17:13 42.5135 -95.3410 82° East 478 550 39,000  Level FlightAware ADS-B
17:13 42.4993 -95.4854 262° West 478 550 39,000  Level FlightAware ADS-B
17:14 42.5228 -95.2457 82° East 479 551 39,000  Level FlightAware ADS-B
17:14 42.5244 -95.2293 83° East 479 551 39,000  Level FlightAware ADS-B
17:14 42.5315 -95.1554 82° East 479 551 39,000  Level FlightAware ADS-B
17:15 42.5420 -95.0420 83° East 479 551 39,000  Level FlightAware
17:15 42.5510 -94.9506 82° East 481 554 39,000  Level FlightAware ADS-B
17:16 42.5595 -94.8598 83° East 482 555 39,000  Level FlightAware ADS-B
17:16 42.5720 -94.7310 82° East 482 555 39,000  Level FlightAware
17:17 42.5800 -94.6390 83° East 483 556 39,000  Level FlightAware
17:17 42.5871 -94.5615 83° East 484 557 39,000  Level FlightAware ADS-B
17:18 42.5960 -94.4638 83° East 485 558 39,000  Level FlightAware ADS-B
17:18 42.6041 -94.3729 83° East 484 557 39,000  Level FlightAware ADS-B
17:19 42.6150 -94.2250 84° East 485 558 39,000  Level FlightAware
17:20 42.6144 -94.1682 91° East 486 559 39,000  Level FlightAware ADS-B
17:20 42.6133 -94.0718 91° East 486 559 39,000  Level FlightAware ADS-B
17:21 42.6129 -93.9789 90° East 487 560 39,000  Level FlightAware ADS-B
17:22 42.6140 -93.8060 89° East 487 560 39,000  Level FlightAware
17:22 42.6140 -93.7810 90° East 487 560 39,000  Level FlightAware ADS-B
17:23 42.6160 -93.5800 89° East 487 560 39,000  Level FlightAware
17:23 42.6160 -93.4870 90° East 487 560 39,000  Level FlightAware
17:24 42.6170 -93.3730 89° East 487 560 39,000  Level FlightAware
17:24 42.6170 -93.2750 90° East 488 562 39,000  Level FlightAware
17:25 42.6170 -93.1440 90° East 488 562 39,000  Level FlightAware
17:26 42.6170 -93.0290 90° East 489 563 39,000  Level FlightAware
17:26 42.6160 -92.9360 91° East 489 563 39,000  Level FlightAware
17:27 42.6160 -92.8160 90° East 489 563 39,000  Level FlightAware
17:28 42.6160 -92.6860 90° East 490 564 39,000  Level FlightAware
17:28 42.6150 -92.5810 91° East 489 563 39,000  Level FlightAware
17:29 42.6150 -92.4680 90° East 490 564 39,000  Level FlightAware
17:29 42.6140 -92.3750 91° East 490 564 39,000  Level FlightAware
17:30 42.6130 -92.2640 91° East 491 565 39,000  Level FlightAware
17:31 42.6120 -92.1510 91° East 492 566 39,000  Level FlightAware
17:31 42.6120 -92.1234 90° East 492 566 39,000  Level FlightAware ADS-B
17:32 42.6100 -91.9500 91° East 493 567 39,000  Level FlightAware
17:32 42.6090 -91.8270 91° East 493 567 39,000  Level FlightAware
17:33 42.6070 -91.7140 91° East 494 568 39,000  Level FlightAware
17:33 42.6060 -91.6150 91° East 495 570 39,000  Level FlightAware
17:34 42.6050 -91.5060 91° East 495 570 39,000  Level FlightAware
17:35 42.6030 -91.3940 91° East 495 570 39,000  Level FlightAware
17:35 42.6010 -91.2830 91° East 496 571 39,000  Level FlightAware
17:36 42.5990 -91.1790 91° East 496 571 39,000  Level FlightAware
17:36 42.5970 -91.0670 91° East 496 571 39,000  Level FlightAware
17:37 42.5950 -90.9560 91° East 497 572 39,000  Level FlightAware
17:37 42.5947 -90.9257 91° East 497 572 39,000  Level FlightAware ADS-B
17:38 42.5910 -90.7360 91° East 498 573 39,000  Level FlightAware
17:39 42.5890 -90.6350 92° East 499 574 39,000  Level FlightAware
17:39 42.5860 -90.5260 92° East 499 574 39,000  Level FlightAware
17:40 42.5840 -90.4140 91° East 499 574 39,000  Level FlightAware
17:41 42.5810 -90.3030 92° East 499 574 39,000  Level FlightAware
17:41 42.5780 -90.1970 92° East 499 574 39,000  Level FlightAware
17:42 42.5750 -90.0840 92° East 499 574 39,000  Level FlightAware
17:42 42.5720 -89.9860 92° East 498 573 39,000  Level FlightAware
17:43 42.5690 -89.8640 92° East 498 573 39,000  Level FlightAware
17:43 42.5660 -89.7610 92° East 497 572 39,000  Level FlightAware
17:44 42.5630 -89.6490 92° East 496 571 39,000  Level FlightAware
17:45 42.5590 -89.5410 93° East 495 570 39,000  Level FlightAware
17:45 42.5560 -89.4410 92° East 494 568 39,000  Level FlightAware
17:46 42.5520 -89.3260 93° East 493 567 39,000  Level FlightAware
17:46 42.5490 -89.2190 92° East 493 567 39,000  Level FlightAware
17:47 42.5450 -89.1040 93° East 492 566 39,000  Level FlightAware
17:47 42.5410 -89.0070 93° East 491 565 39,000  Level FlightAware
17:48 42.5370 -88.9000 93° East 491 565 39,000  Level FlightAware
17:49 42.5330 -88.7950 93° East 490 564 39,000  Level FlightAware
17:49 42.5290 -88.6750 93° East 490 564 39,000  Level FlightAware
17:50 42.5250 -88.5890 94° East 490 564 39,000  Level FlightAware
17:50 42.5200 -88.4670 93° East 489 563 39,000  Level FlightAware
17:51 42.5160 -88.3570 93° East 489 563 39,000  Level FlightAware
17:52 42.5110 -88.2580 94° East 489 563 39,000  Level FlightAware
17:52 42.5070 -88.1500 93° East 489 563 39,000  Level FlightAware
17:53 42.5020 -88.0420 94° East 489 563 39,000  Level FlightAware
17:53 42.5000 -87.9330 91° East 489 563 39,000  Level FlightAware
17:54 42.5000 -87.8380 90° East 489 563 39,000  Level FlightAware
17:55 42.5000 -87.7150 90° East 490 564 39,000  Level FlightAware
17:55 42.4990 -87.6070 91° East 490 564 39,000  Level FlightAware
17:56 42.4990 -87.5150 90° East 490 564 39,000  Level FlightAware
17:56 42.4990 -87.4070 90° East 489 563 39,000  Level FlightAware
17:57 42.4980 -87.2960 91° East 489 563 39,000  Level FlightAware
17:57 42.4970 -87.1890 91° East 488 562 39,000  Level FlightAware
17:58 42.4970 -87.0890 90° East 487 560 39,000  Level FlightAware
17:59 42.4960 -86.9770 91° East 487 560 39,000  Level FlightAware
17:59 42.4950 -86.8620 91° East 487 560 39,000  Level FlightAware
18:00 42.4940 -86.7710 91° East 487 560 39,000  Level FlightAware
18:00 42.4930 -86.6570 91° East 487 560 39,000  Level FlightAware
18:01 42.4910 -86.5660 92° East 487 560 39,000  Level FlightAware
18:02 42.4900 -86.4400 91° East 487 560 39,000  Level FlightAware
18:02 42.4880 -86.3370 91° East 487 560 39,000  Level FlightAware
18:03 42.4870 -86.2240 91° East 487 560 39,000  Level FlightAware
18:03 42.4860 -86.1430 91° East 487 560 39,000  Level FlightAware
18:04 42.4840 -86.0210 91° East 487 560 39,000  Level FlightAware
18:04 42.4820 -85.9080 91° East 487 560 39,000  Level FlightAware
18:05 42.4800 -85.8030 91° East 486 559 39,000  Level FlightAware
18:06 42.4780 -85.7020 92° East 485 558 39,000  Level FlightAware
18:06 42.4760 -85.6040 92° East 485 558 39,000  Level FlightAware
18:07 42.4730 -85.4880 92° East 484 557 39,000  Level FlightAware
18:07 42.4710 -85.3880 92° East 483 556 39,000  Level FlightAware
18:08 42.4680 -85.2540 92° East 484 557 39,000  Level FlightAware
18:09 42.4650 -85.1420 92° East 483 556 39,000  Level FlightAware
18:09 42.4630 -85.0360 91° East 483 556 39,000  Level FlightAware
18:10 42.4600 -84.9390 92° East 482 555 39,000  Level FlightAware
18:10 42.4570 -84.8360 92° East 483 556 39,000  Level FlightAware
18:11 42.4540 -84.7300 92° East 483 556 39,000  Level FlightAware
18:11 42.4510 -84.6310 92° East 482 555 39,000  Level FlightAware
18:12 42.4480 -84.5280 92° East 482 555 39,000  Level FlightAware
18:13 42.4450 -84.4070 92° East 482 555 39,000  Level FlightAware
18:13 42.4420 -84.3040 92° East 482 555 39,000  Level FlightAware
18:14 42.4380 -84.2030 93° East 483 556 39,000  Level FlightAware
18:14 42.4350 -84.0990 92° East 484 557 39,000  Level FlightAware
18:15 42.4310 -83.9900 93° East 484 557 39,000  Level FlightAware
18:16 42.4270 -83.8860 93° East 484 557 39,000  Level FlightAware
18:16 42.4230 -83.7740 93° East 483 556 39,000  Level FlightAware
18:17 42.4190 -83.6690 93° East 483 556 39,000  Level FlightAware
18:17 42.4150 -83.5630 93° East 483 556 39,000  Level FlightAware
18:18 42.4110 -83.4600 93° East 483 556 39,000  Level FlightAware
18:19 42.4070 -83.3470 93° East 482 555 39,000  Level FlightAware
18:19 42.4030 -83.2530 93° East 482 555 39,000  Level FlightAware
18:20 42.3990 -83.1500 93° East 481 554 39,000  Level FlightAware
18:20 42.3940 -83.0370 93° East 480 552 39,000  Level FlightAware
18:21 42.3890 -82.9270 93° East 480 552 39,000  Level FlightAware
18:21 42.3850 -82.8300 93° East 479 551 39,000  Level FlightAware
18:22 42.3800 -82.7240 94° East 479 551 39,000  Level FlightAware
18:23 42.3760 -82.6230 93° East 479 551 39,000  Level FlightAware
18:23 42.3720 -82.5280 93° East 479 551 39,000  Level FlightAware
18:24 42.3680 -82.4130 93° East 479 551 39,000  Level FlightAware
18:24 42.3640 -82.3100 93° East 478 550 39,000  Level FlightAware
18:25 42.3590 -82.2020 94° East 477 549 39,000  Level FlightAware
18:26 42.3550 -82.0990 93° East 476 548 39,000  Level FlightAware
18:26 42.3500 -81.9980 94° East 475 547 39,000  Level FlightAware
18:27 42.3460 -81.8930 93° East 475 547 39,000  Level FlightAware
18:27 42.3410 -81.7910 94° East 475 547 39,000  Level FlightAware
18:28 42.3360 -81.6810 93° East 476 548 39,000  Level FlightAware
18:28 42.3310 -81.5810 94° East 477 549 39,000  Level FlightAware
18:29 42.3260 -81.4700 93° East 478 550 39,000  Level FlightAware
18:30 42.3210 -81.3620 94° East 479 551 39,000  Level FlightAware
18:30 42.3160 -81.2700 94° East 480 552 39,000  Level FlightAware
18:31 42.3110 -81.1590 93° East 480 552 39,000  Level FlightAware
18:31 42.3050 -81.0500 94° East 481 554 39,000  Level FlightAware
18:32 42.3000 -80.9550 94° East 480 552 39,000  Level FlightAware
18:33 42.2940 -80.8420 94° East 480 552 39,000  Level FlightAware
18:33 42.2890 -80.7410 94° East 479 551 39,000  Level FlightAware
18:34 42.2830 -80.6430 95° East 479 551 39,000  Level FlightAware
18:34 42.2770 -80.5320 94° East 479 551 39,000  Level FlightAware
18:35 42.2710 -80.4260 94° East 478 550 39,000  Level FlightAware
18:35 42.2650 -80.3280 95° East 476 548 39,000  Level FlightAware
18:36 42.2590 -80.2190 94° East 475 547 39,000  Level FlightAware
18:37 42.2530 -80.1260 95° East 475 547 39,000  Level FlightAware
18:37 42.2470 -80.0230 94° East 475 547 39,000  Level FlightAware
18:38 42.2400 -79.9120 95° East 475 547 39,000  Level FlightAware
18:38 42.2340 -79.8040 94° East 475 547 39,000  Level FlightAware
18:39 42.2280 -79.7090 95° East 475 547 39,000  Level FlightAware
18:40 42.2210 -79.5990 95° East 475 547 39,000  Level FlightAware
18:40 42.2140 -79.4960 95° East 476 548 39,000  Level FlightAware
18:41 42.2070 -79.3990 96° East 476 548 39,000  Level FlightAware
18:41 42.2000 -79.2930 95° East 476 548 39,000  Level FlightAware
18:42 42.1930 -79.1900 95° East 477 549 39,000  Level FlightAware
18:42 42.1800 -79.0900 100° East 477 549 39,000  Level FlightAware
18:43 42.1560 -78.9870 107° East 479 551 39,000  Level FlightAware
18:44 42.1310 -78.8870 109° East 478 550 39,000  Level FlightAware
18:44 42.1090 -78.8020 109° East 478 550 39,000  Level FlightAware
18:45 42.0820 -78.6940 109° East 478 550 39,000  Level FlightAware
18:45 42.0550 -78.5910 109° East 478 550 39,000  Level FlightAware
18:46 42.0310 -78.4960 109° East 476 548 39,000  Level FlightAware
18:47 42.0070 -78.4020 109° East 475 547 39,000  Level FlightAware
18:47 41.9830 -78.3070 109° East 474 545 39,000  Level FlightAware
18:48 41.9570 -78.2060 109° East 474 545 39,000  Level FlightAware
18:48 41.9300 -78.1000 109° East 473 544 39,000  Level FlightAware
18:49 41.9050 -78.0060 110° East 472 543 39,000  Level FlightAware
18:49 41.8820 -77.9180 109° East 471 542 39,000  Level FlightAware
18:50 41.8540 -77.8120 109° East 471 542 39,000  Level FlightAware
18:51 41.8310 -77.7250 110° East 470 541 39,000  Level FlightAware
18:51 41.8060 -77.6270 109° East 470 541 39,000  Level FlightAware
18:52 41.7820 -77.5360 109° East 469 540 39,000  Level FlightAware
18:52 41.7550 -77.4340 110° East 469 540 39,000  Level FlightAware
18:53 41.7290 -77.3380 110° East 470 541 39,000  Level FlightAware
18:54 41.7020 -77.2380 110° East 469 540 39,000  Level FlightAware
18:54 41.6760 -77.1410 110° East 469 540 39,000  Level FlightAware
18:55 41.6520 -77.0510 110° East 470 541 39,000  Level FlightAware
18:55 41.6240 -76.9480 110° East 470 541 39,000  Level FlightAware
18:56 41.5970 -76.8490 110° East 471 542 39,000  Level FlightAware
18:57 41.5670 -76.7400 110° East 471 542 39,000  Level FlightAware
18:57 41.5430 -76.6520 110° East 471 542 39,000  Level FlightAware
18:58 41.5150 -76.5520 110° East 472 543 39,000  Level FlightAware
18:58 41.4880 -76.4550 110° East 472 543 39,000  Level FlightAware
18:59 41.4610 -76.3580 110° East 472 543 39,000 -180 Level FlightAware
19:00 41.4370 -76.2710 110° East 472 543 38,800 -900 Descending FlightAware
19:00 41.4100 -76.1730 110° East 474 545 38,000 -2,220 Descending FlightAware
19:01 41.3810 -76.0710 111° Southeast 483 556 36,200 -3,120 Descending FlightAware
19:01 41.3580 -75.9870 110° East 487 560 34,500 -4,320 Descending FlightAware
19:02 41.3290 -75.8850 111° Southeast 480 552 31,500 -4,020 Descending FlightAware
19:02 41.3010 -75.7870 111° Southeast 466 536 29,600 -2,760 Descending FlightAware
19:03 41.2700 -75.6840 112° Southeast 470 541 28,100 -2,340 Descending FlightAware
19:04 41.2440 -75.6030 113° Southeast 476 548 27,000 -2,160 Descending FlightAware
19:04 41.2130 -75.5090 114° Southeast 471 542 25,700 -2,280 Descending FlightAware
19:05 41.1800 -75.4120 114° Southeast 455 524 24,300 -2,220 Descending FlightAware
19:05 41.1490 -75.3200 114° Southeast 447 514 23,100 -1,140 Descending FlightAware
19:06 41.1220 -75.2390 114° Southeast 445 512 23,000 -300 Descending FlightAware
19:07 41.0940 -75.1570 114° Southeast 436 502 22,800 -540 Descending FlightAware
19:07 41.0630 -75.0640 114° Southeast 437 503 22,400 -600 Descending FlightAware
19:08 41.0330 -74.9780 115° Southeast 447 514 22,100 -540 Descending FlightAware
19:08 41.0060 -74.8960 114° Southeast 441 507 21,800 -540 Descending FlightAware
19:09 40.9900 -74.8090 104° East 421 484 21,500 -600 Descending FlightAware
19:09 40.9790 -74.7130 99° East 438 504 21,100 -600 Descending FlightAware
19:10 40.9690 -74.6220 98° East 439 505 20,800 -600 Descending FlightAware
19:11 40.9600 -74.5410 98° East 433 498 20,500 -660 Descending FlightAware
19:11 40.9470 -74.4200 98° East 417 480 20,000 -600 Descending FlightAware
19:12 40.9370 -74.3270 98° East 424 488 19,700 -540 Descending FlightAware
19:12 40.9280 -74.2500 99° East 401 461 19,400 -660 Descending FlightAware
19:13 40.9180 -74.1650 99° East 375 432 19,000 -480 Descending FlightAware
19:13 40.9100 -74.1370 111° Southeast 361 415 19,000  Level FlightAware
19:14 40.8974 -74.1091 121° Southeast 353 406 19,000 -960 Level FlightAware ADS-B
19:14 40.8667 -74.0560 127° Southeast 346 398 18,300 -2,040 Descending FlightAware ADS-B
19:15 40.8364 -74.0037 127° Southeast 336 387 16,900 -2,760 Descending FlightAware ADS-B
19:15 40.7990 -73.9390 127° Southeast 333 383 14,900 -1,740 Descending FlightAware
19:16 40.7933 -73.9291 127° Southeast 322 371 14,700 -1,920 Descending FlightAware ADS-B
19:16 40.7330 -73.8280 128° Southeast 311 358 12,600 -1,860 Descending FlightAware
19:17 40.7020 -73.7790 130° Southeast 306 352 12,600  Level FlightAware
19:17 40.6950 -73.7570 113° Southeast 302 348 12,600 -240 Level FlightAware
19:18 40.6850 -73.6880 101° East 301 346 12,400 -540 Descending FlightAware
19:18 40.6780 -73.6300 99° East 297 342 12,000 -720 Descending FlightAware
19:19 40.6690 -73.5660 100° East 290 334 11,600 -600 Descending FlightAware
19:19 40.6650 -73.5530 112° Southeast 294 338 11,600  Level FlightAware
19:19 40.6580 -73.5420 130° Southeast 298 343 11,600 -300 Level FlightAware
19:19 40.6450 -73.5270 139° Southeast 303 349 11,500 -900 Descending FlightAware
19:20 40.6350 -73.5210 156° South 305 351 11,300 -2,160 Descending FlightAware
19:20 40.6070 -73.5130 168° South 301 346 10,500 -2,220 Descending FlightAware
19:20 40.5780 -73.5190 189° South 300 345 9,600 -2,340 Descending FlightAware
19:21 40.5490 -73.5300 196° South 294 338 8,700 -2,580 Descending FlightAware
19:21 40.5150 -73.5440 197° South 289 333 7,700 -2,400 Descending FlightAware
19:21 40.5040 -73.5500 203° Southwest 287 330 7,300 -2,100 Descending FlightAware
19:21 40.4950 -73.5610 223° Southwest 284 327 7,000 -2,100 Descending FlightAware
19:22 40.4870 -73.5770 237° Southwest 280 322 6,600 -2,100 Descending FlightAware
19:22 40.4830 -73.5880 244° Southwest 276 318 6,300 -2,640 Descending FlightAware
19:22 40.4750 -73.6290 256° West 277 319 5,200 -2,940 Descending FlightAware
19:22 40.4710 -73.6500 256° West 279 321 4,600 -2,640 Descending FlightAware
19:23 40.4640 -73.6950 258° West 270 311 3,500 -2,280 Descending FlightAware
19:23 40.4720 -73.7310 286° West 255 293 2,700 -1,920 Descending FlightAware
19:23 40.4790 -73.7500 296° West 248 285 2,300 -1,260 Descending FlightAware
19:24 40.4890 -73.7760 297° West 227 261 2,000 -900 Descending FlightAware
19:24 40.4970 -73.7910 305° West 214 246 1,800 -840 Descending FlightAware
19:24 40.5100 -73.8120 309° West 200 230 1,500 -300 Descending FlightAware
19:25 40.5220 -73.8260 318° Northwest 186 214 1,600 300 Climbing FlightAware
19:25 40.5320 -73.8380 318° Northwest 165 190 1,700 240 Climbing FlightAware
19:25 40.5380 -73.8400 346° North 156 180 1,700  Level FlightAware
19:25 40.5400 -73.8410 339° North 151 174 1,700 -240 Level FlightAware
19:26 40.5550 -73.8290 31° Northeast 142 163 1,600 -660 Descending FlightAware
19:26 40.5610 -73.8220 42° Northeast 141 162 1,300 -1,500 Descending FlightAware
19:26 40.5650 -73.8180 37° Northeast 140 161 1,100 -900 Descending FlightAware
19:26 40.5740 -73.8100 34° Northeast 135 155 900 -840 Descending FlightAware
19:27 40.5850 -73.8020 29° Northeast 132 152 600 -840 Descending FlightAware
19:27 40.5980 -73.7920 30° Northeast 134 154 300 -660 Descending FlightAware
19:27 40.6050 -73.7860 33° Northeast 132 152 200 -540 Descending FlightAware
19:28 40.6150 -73.7780 31° Northeast 134 154 -600 Descending FlightAware
19:28 40.6270 -73.7690 30° Northeast 134 154  Level FlightAware